Weather History for MMQT - July, 2013

Change the Weather History Date:

Saturday, July 20, 2013

  Actual Average Record
Temperature  
Mean Temperature 70 °F -  
Max Temperature 83 °F 76 °F 87 °F (2014)
Min Temperature 57 °F 56 °F 53 °F (2000)
Cooling Degree Days 5    
Growing Degree Days 20 (Base 50)    
Moisture  
Dew Point 51 °F    
Average Humidity 57    
Maximum Humidity 94    
Minimum Humidity 25    
Precipitation  
Precipitation 0.43 in - - ()
Sea Level Pressure  
Sea Level Pressure 30.13 in    
Wind  
Wind Speed 5 mph ()    
Max Wind Speed 21 mph    
Max Gust Speed -    
Visibility 6.7 miles    
Events Rain , Thunderstorm    
Averages and records for this station are not official NWS values.
T = Trace of Precipitation, MM = Missing Value Source: Averaged Metar Reports

Daily Weather History Graph

Daily Weather History Graph

Search for Another Location

Airport or City:

Trip Planner

Search our weather history database for the weather conditions in past years. The results will help you decide how hot, cold, wet, or windy it might be!

Date:

Astronomy

Jul. 20, 2013 Rise Set
Actual Time 7:10 AM CDT 8:23 PM CDT
Civil Twilight 6:46 AM CDT 8:47 PM CDT
Nautical Twilight 6:18 AM CDT 9:15 PM CDT
Astronomical Twilight 5:48 AM CDT 9:45 PM CDT
Moon 6:29 PM CDT (7/20) 4:52 AM CDT (7/20)
Length of Visible Light 14h 00m
Length of Day
13h 12m
Waxing Gibbous, 94% of the Moon is Illuminated
Jul 20
Waxing Gibbous
Jul 22
Full
Jul 29
Last Quarter
Aug 6
New
Aug 14
First Quarter

Hourly Weather History & Observations

Time (CDT) Temp. Dew Point Humidity Pressure Visibility Wind Dir Wind Speed Gust Speed Precip Events Conditions
12:45 AM 66.2 °F 50.0 °F 56% 30.32 in 7.0 mi NE 8.1 mph - N/A   Mostly Cloudy
1:45 AM 64.4 °F 50.0 °F 59% 30.32 in 7.0 mi ENE 6.9 mph - N/A   Mostly Cloudy
2:45 AM 64.4 °F 50.0 °F 59% 30.28 in 7.0 mi ENE 5.8 mph - N/A   Mostly Cloudy
3:40 AM 62 °F 55 °F 73% 29.86 in 6 mi East 2.2 mph - -   Scattered Clouds
3:45 AM 60.8 °F 50.0 °F 68% 30.28 in 7.0 mi Calm Calm - N/A   Mostly Cloudy
4:45 AM 62.6 °F 48.2 °F 59% 30.28 in 7.0 mi Calm Calm - N/A   Mostly Cloudy
6:40 AM 62 °F 56 °F 76% 29.80 in 6 mi North 2.2 mph - -   Mostly Cloudy
6:45 AM 62.6 °F 48.2 °F 59% 30.28 in 7.0 mi NE 4.6 mph - N/A   Mostly Cloudy
7:45 AM 60.8 °F 42.8 °F 52% 30.27 in 6.0 mi Calm Calm - N/A   Mostly Cloudy
8:45 AM 64.4 °F 44.6 °F 49% 30.29 in 6.0 mi ENE 5.8 mph - N/A   Mostly Cloudy
9:40 AM 66 °F 57 °F 64% 29.87 in 16 mi East 8.9 mph - -   Scattered Clouds
9:45 AM 64.4 °F 44.6 °F 49% 30.29 in 6.0 mi East 8.1 mph - N/A   Mostly Cloudy
10:45 AM 68.0 °F 44.6 °F 43% 30.30 in 6.0 mi East 6.9 mph - N/A   Mostly Cloudy
11:45 AM 69.8 °F 44.6 °F 40% 30.30 in 6.0 mi East 5.8 mph - N/A   Mostly Cloudy
12:45 PM 71.6 °F 46.4 °F 41% 30.27 in 6.0 mi Calm Calm - N/A   Mostly Cloudy
12:53 PM 77 °F 54 °F 35% 29.84 in 12 mi South 2.2 mph - -   Partly Cloudy
1:45 PM 73.4 °F 46.4 °F 38% 30.25 in 6.0 mi Calm Calm - N/A   Mostly Cloudy
2:45 PM 78.8 °F 48.2 °F 34% 30.21 in 6.0 mi Calm Calm - N/A   Mostly Cloudy
3:43 PM 78.8 °F 48.2 °F 34% 30.19 in 6.0 mi North 4.6 mph - N/A   Mostly Cloudy
3:50 PM 83 °F 54 °F 26% 29.66 in 12 mi NNW 4.5 mph - -   Partly Cloudy
4:45 PM 78.8 °F 48.2 °F 34% 30.15 in 6.0 mi West 4.6 mph - N/A   Mostly Cloudy
5:50 PM 78.8 °F 48.2 °F 34% 30.13 in 6.0 mi West 5.8 mph - N/A   Mostly Cloudy
6:50 PM 69.8 °F 50.0 °F 49% 30.13 in 6.0 mi NNE 20.7 mph - N/A   Mostly Cloudy
6:55 PM 81 °F 51 °F 25% 29.55 in 12 mi NW 6.7 mph - -   Scattered Clouds
7:28 PM 64.4 °F 55.4 °F 73% 30.15 in 3.0 mi ENE 20.7 mph - N/A Rain , Thunderstorm Thunderstorms and Rain
7:45 PM 62.6 °F 57.2 °F 82% 30.17 in 3.0 mi NE 16.1 mph - N/A Rain , Thunderstorm Thunderstorms and Rain
8:45 PM 62.6 °F 57.2 °F 82% 30.18 in 4.0 mi North - - N/A   Overcast
9:48 PM 59.0 °F 55.4 °F 88% 30.22 in 5.0 mi South 9.2 mph - N/A   Overcast
9:55 PM 64 °F 59 °F 79% 29.63 in 12 mi SE 8.9 mph - - Rain Light Rain
10:45 PM 59.0 °F 55.4 °F 88% 30.24 in 5.0 mi Calm Calm - N/A   Overcast
11:20 PM 57.2 °F 55.4 °F 94% 30.28 in 3.0 mi South 5.8 mph - N/A Rain , Thunderstorm Thunderstorms and Rain
11:45 PM 57.2 °F 55.4 °F 94% 30.30 in 2.0 mi South 6.9 mph - N/A Rain , Thunderstorm Thunderstorms and Rain